Location: Orinda
(37.8771°N, 122.1797°W)
Time: 00:30:37
(UTC+00:00)

CZ-2C R/B - Pass Details

Date: 21 October 2019
Orbit: 668 x 784 km, 98.1° (Epoch: 13 November)

Event Time Altitude Azimuth Distance (km) Brightness Sun altitude
Rises 13:24:19 0° 1° (N) 3,280 5.7 -12.3°
Reaches altitude 10° 13:26:54 10° 350° (N) 2,345 4.9 -11.8°
Maximum altitude 13:31:19 29° 292° (WNW) 1,387 3.3 -10.9°
Drops below altitude 10° 13:35:40 10° 233° (SW) 2,300 4.5 -10.0°
Sets 13:38:11 0° 222° (SW) 3,207 5.4 -9.5°
